Погода Богучаны

Погода Богучаны : погода сейчас, прогноз погоды и архив. Всё, что Вы хотите узнать о погоде Богучаны!

Хотите узнать прогноз погоды Богучаны? Тогда Вам сюда: Погода Богучаны

Поиск расширенной информации на нашем сайте:

Другие новости

Новости СМИ2

Главная страница сайта

Новости сайта

03.07.2017

Напоминаем, что на нашем специализированном сайте Метеоцентр.Азия вы можете получить высокодетализированные автоматические прогнозы погоды по пунктам России, СНГ и мира в авиационном формате (включающие направление и скорость ветра, видимость, явления погоды, количество и форму облачности, нижнюю и верхнюю границу облачности).


Погода Богучаны - сегодня

Время (UTC), дата Ветер
(°,м/с) 
Видим.   Явления Облачность Т
(°С)
Тd
(°С)
f(%) Тe
(°С)
Pmin
(гПа)
dP
(гПа)
Po
(мм)
O2
(г/м3)
Тmin Tmax R s Состояние
почвы
15 20.02.18 250 (З) 14000 м  слаб. снег  10/0 верхняя 
[Cs]
-11.4 -15 75 -15  1025.4  -0.3  756  319           
18 20.02.18 250 (З) 12000 м  слаб. снег  10/0 верхняя 
[Cs]
-12.2 -14.9 80 -14  1024.8  -0.6  755  320           
21 20.02.18 280 (З) 10 км  слаб. снег  10/0 средняя 
[Ac As]
-12.8 -14.8 85 -15  1024.4  -0.5  755  320           
00 21.02.18 250 (З) 50000 м  {снег}  10/1 600 м кучево-дожд., средняя, верхняя 
[Cb cap|Ac trans|Ci fib]
-18.5 -20.7 83 -19  1024.6  -0.1  755  328  -18.5    0.0  46  равномерный
сухой снег
100% 
06 21.02.18 360 (С) 20000 м  {снег}  8/5 600 м кучево-дожд., верхняя 
[Cb cap|Ci fib]
-12.1 -16.6 69 -12  1023.5  -0.7  754  319           
09 21.02.18 230 (ЮЗ) 20000 м    9/5 600 м кучево-дожд., верхняя 
[Cb cap|Ci fib]
-9.7 -14.4 69 -10  1023.2  -0.1  754  316           
12 21.02.18 230 (ЮЗ) 50000 м    10/8 600 м кучево-дожд., верхняя 
[Cb cap|Ci fib]
-13.4 -15.9 81 -16  1023.7  0.2  754  321    -8.8  0.0     
15 21.02.18 тихо ()   13000 м  слаб. снег  10/0 600 м верхняя 
[Cs]
-18.5 -20.7 83 -19  1024.1  754  328           
18 21.02.18 тихо ()   50000 м  {снег}  10/0 верхняя 
[Ci fib]
-21.4 -24 80 -21  1024.7  0.4  755  332           
21 21.02.18 тихо ()   12000 м  слаб. снег  10/0 верхняя 
[Cs]
-22.6 -25.3 79 -23  1025.7  0.9  755  334           
00 22.02.18 290 (З) 50000 м  {снег}  ясно 
-25.6 -28.5 77 -26  1026.6  0.7  756  338  -25.6    0.3  46  равномерный
сухой снег
100% 
03 22.02.18 300 (СЗ) 10 км    1/0 верхняя 
[Ci fib]
-26.2 -29.2 76 -27  1027  0.3  756  339  -27.2         
06 22.02.18 300 (СЗ) 10 км    ясно 
-17.9 -21.6 73 -18  1025.8  -0.5  756  328           
09 22.02.18 тихо ()   10 км    ясно 
-14.4 -19.5 65 -14  1024.3  -1.3  755  323           
12 22.02.18 тихо ()   27000 м    ясно 
-21.1 -23.3 82 -21  1024.1  -0.6  754  331    -11.3       
15 22.02.18 тихо ()   25000 м    ясно 
-25 -27.8 77 -25  1023.6  -0.8  754  336           
18 22.02.18 тихо ()   26000 м    ясно 
-27.6 -30.7 75 -28  1023.2  -0.6  753  340           
21 22.02.18 тихо ()   25000 м    ясно 
-29.5 -32.8 73 -30  1022.8  -0.5  753  342           
00 23.02.18 тихо ()   25000 м    3/0 верхняя 
[Ci fib]
-30.5 -34 71 -31  1022.3  -0.6  752  343  -30.6      46  равномерный
сухой снег
100% 
03 23.02.18 тихо ()   10 км    10/0 верхняя 
[Cs]
-28 -31.2 74 -28  1021.7  -0.4  752  340           
06 23.02.18 тихо ()   10 км  слаб. снег  10/0 верхняя 
[Cs]
-22.9 -25.8 77 -23  1020.6  -0.7  752  332           
09 23.02.18 тихо ()   10 км  слаб. снег  10/0 средняя 
[Ac As]
-17.5 -21.3 72 -18  1020.5  0.3  752  325           
12 23.02.18 тихо ()   14000 м  слаб. снег  10/0 верхняя 
[Cs]
-17.4 -19.8 82 -17  1021.1  0.5  752  325    -16.9  0.7     
15 23.02.18 тихо ()   10 км  слаб. снег  10/0 верхняя 
[Cs]
-17.7 -20 82 -18  1021.2  0.1  752  326           
18 23.02.18 тихо ()   25000 м  дым{снег}  4/0 верхняя 
[Ci fib]
-22 -24.5 80 -22  1021.8  0.3  753  332           
Время (UTC), дата Ветер
(°,м/с) 
Видим.   Явления Облачность Т
(°С)
Тd
(°С)
f(%) Тe
(°С)
Pmin
(гПа)
dP
(гПа)
Po
(мм)
O2
(г/м3)
Тmin Tmax R s Состояние
почвы

Для получения пояснительной информации подведите курсор к названию столбца.

ПОГОДА Богучаны - архив

Всё, что Вы хотите узнать о погоде Богучаны - удобно и подробно!

Выберите нужную дату (начиная с 1 января 2015* года) и нажмите кнопку "Найти".
Будут отображены архивные сводки погоды по пункту Богучаны, начиная с указанной даты.


Отображать данные в формате CSV (для использования в таблицах Excel)


Внимание! Наш архив погоды предназначен исключительно для личного некоммерческого использования в познавательных целях. Если Вам необходимы официальные справки о состоянии погоды (для производственных, юридических, коммерческих и т.п. целей), обращайтесь в органы Росгидромета.

*Примечание: данная дата относится к архиву по метеостанциям СССР (Россия, СНГ, Балтия).
Архив по метеостанциям Зарубежной Европы и Азии (кроме Китая) хранится 10 дней, по другим регионам земного шара (Китай, Африка, Америка, Австралия, Океания) - 1 день.

Богучаны - район местоположения метеостанции


Название, широта, долгота, высота метеостанции:
Богучаны 58.4°ш. 97.4°д. 133 м над ур. моря [Российская Федерация]

Дополнительная информация

В oтличие oт бoльшинства пoгoдных сайтoв мы публикуем пoдрoбную метеoинфoрмацию в детальнoм прoфессиoнальнoм фoрмате.

Характеристики температуры и влажнoсти вoздуха измеряются на высoте 2 м в тени вдали oт зданий и деревьев.
Скoрoсть ветра измеряется на высoте 10 м (на урoвне рoста челoвека скoрoсть ветра ниже в 1.5-2 раза). Если метеoстанция нахoдится в гoрoде или в лесу, тo скoрoсть ветра занижена на 2-4 м/с пo сравнению с oткрытым местoм. Скoрoсть ветра над акватoриями крупных рек и oзёр, а также на вершинах хoлмoв на 2-5 м/с выше, чем в oбычных услoвиях.
Атмoсфернoе давление в разных тoчках местнoсти мoжет значительнo oтличаться oт давления на метеoстанции, в зависимoсти oт услoвий рельефа (при пoдъёме на 10 м давление пoнижается примернo на 1 мм рт.ст.).